Flag for Sweden Weather past 2 weeks in Malmö, Sweden

Now
48 °F

Light fog.


Feels Like: 47 °F
Forecast: 51 / 66 °F
Wind: 3 mph from Southeast

Location: Malmo / Sturup

Current Time: Sep 3, 2015 at 9:30:53 PM

Latest Report: Sep 3, 2015 at 8:50 PM


Visibility: N/A

Pressure: 29.92 "Hg

Humidity: 100%

Dew point: 48 °F

Location of MalmöLocation

Historic Weather in Malmö — Graph

°F

Malmö temperature yesterday

Maximum temperature yesterday: 66 °F (at 3:50 PM)
Minimum temperature yesterday: 55 °F (at 5:50 AM)
Average temperature yesterday: 61 °F

Past Weeks' High & Low Weather Summary

 TemperatureHumidityPressure
High75 °F (Aug 20, 12:50 PM)100% (Aug 22, 5:20 AM)30.36 "Hg (Aug 22, 5:20 AM)
Low46 °F (Sep 3, 4:50 AM)29% (Aug 20, 1:50 PM)29.65 "Hg (Sep 1, 3:20 AM)
Average63 °F78%30.00 "Hg
* Reported Aug 19 7:20 PM — Sep 3 7:50 PM, Malmö, Weather by CustomWeather, © 2015

Note: Actual official high and low records may vary slightly from our data, if they occured in-between our weather recording intervals... More about our weather records

Advertising

Malmö weather history for previous 24 hours

 ConditionsComfort  
Time TempWeatherWind HumidityBarometerVisibility
7:50 PM
Thu, Sep 3
54 °FSunny.3 mph94%29.92 "Hg10 mi
7:20 PM54 °FScattered clouds.3 mph94%29.92 "HgN/A
6:50 PM55 °FLight rain. Clear.5 mph88%29.92 "HgN/A
6:20 PM54 °FLight rain. Scattered clouds.2 mph94%29.92 "Hg6 mi
5:50 PM54 °FLight rain. Broken clouds.No wind94%29.95 "Hg5 mi
5:20 PM54 °FRain. Partly sunny.3 mph94%29.95 "Hg5 mi
4:50 PM54 °FLight rain. Partly sunny.7 mph88%29.95 "HgN/A
4:20 PM55 °FRain. Passing clouds.9 mph77%29.95 "HgN/A
3:50 PM57 °FLight rain. Clear.9 mph72%29.95 "HgN/A
3:20 PM59 °FLight rain. Scattered clouds.9 mph72%29.92 "HgN/A
2:50 PM61 °FLight rain. Scattered clouds.12 mph63%29.95 "HgN/A
2:20 PM61 °FScattered clouds.12 mph63%29.92 "HgN/A
1:50 PM63 °FScattered clouds.12 mph59%29.92 "HgN/A
1:20 PM64 °FPassing clouds.12 mph52%29.92 "HgN/A
12:50 PM64 °FPassing clouds.13 mph56%29.92 "HgN/A
12:20 PM66 °FScattered clouds.13 mph52%29.92 "HgN/A
11:50 AM64 °FScattered clouds.13 mph56%29.92 "HgN/A
11:20 AM63 °FScattered clouds.12 mph64%29.92 "HgN/A
10:50 AM63 °FScattered clouds.12 mph64%29.92 "HgN/A
10:20 AM61 °FScattered clouds.13 mph68%29.92 "HgN/A
9:50 AM61 °FScattered clouds.8 mph72%29.92 "HgN/A
9:20 AM59 °FSunny.5 mph77%29.92 "Hg10 mi
8:50 AM57 °FPassing clouds.2 mph82%29.92 "HgN/A
8:20 AM55 °FPassing clouds.3 mph88%29.92 "HgN/A
7:50 AM50 °FPassing clouds.2 mph94%29.92 "HgN/A
7:20 AM48 °FPassing clouds.3 mph94%29.92 "HgN/A
6:20 AM48 °FClear.6 mph100%29.92 "Hg10 mi
5:20 AM46 °FClear.7 mph100%29.92 "Hg10 mi
4:50 AM46 °FClear.7 mph100%29.92 "Hg10 mi
4:20 AM48 °FClear.6 mph94%29.92 "Hg10 mi
3:50 AM50 °FClear.3 mph94%29.92 "Hg10 mi
3:20 AM50 °FClear.5 mph94%29.92 "Hg10 mi
2:50 AM50 °FClear.7 mph94%29.92 "Hg10 mi
2:20 AM50 °FClear.7 mph94%29.92 "Hg10 mi
1:50 AM55 °FClear.6 mph82%29.92 "Hg10 mi
1:20 AM50 °FClear.6 mph94%29.92 "Hg10 mi
12:50 AM50 °FClear.6 mph94%29.92 "Hg10 mi
11:20 PM
Wed, Sep 2
57 °FClear.8 mph82%29.92 "Hg10 mi
10:50 PM57 °FClear.8 mph82%29.92 "Hg10 mi
10:20 PM59 °FClear.9 mph72%29.92 "Hg10 mi
9:50 PM59 °FClear.10 mph72%29.92 "Hg10 mi
9:20 PM59 °FClear.9 mph72%29.89 "Hg10 mi
Weather by CustomWeather, © 2015

See weather overviewHow to use our weather pages